Weather History for Wolf Point, MT

Change the Weather History Date:

Sunday, November 4, 2012

  Actual Average Record
Temperature  
Mean Temperature 37 °F -  
Max Temperature 46 °F 47 °F 66 °F (2001)
Min Temperature 28 °F 21 °F -4 °F (2003)
Degree Days  
Heating Degree Days 28    
Cooling Degree Days 0    
Moisture  
Dew Point 33 °F    
Average Humidity 89    
Maximum Humidity 100    
Minimum Humidity 68    
Precipitation  
Precipitation 0.03 in 0.02 in 0.11 in (1998)
Month to date precipitation 0.19 0.08  
Year to date precipitation 10.06 11.57  
Sea Level Pressure  
Sea Level Pressure 30.16 in    
Wind  
Wind Speed 7 mph (North)    
Max Wind Speed 20 mph    
Max Gust Speed -    
Visibility 8 miles    
Events Rain    
T = Trace of Precipitation, MM = Missing Value Source: NWS Daily Summary

Daily Weather History Graph

Daily Weather History Graph

Search for Another Location

Airport:

Trip Planner

Search our weather history database for the weather conditions in past years. The results will help you decide how hot, cold, wet, or windy it might be!

Date:

Astronomy

Nov. 04, 2012 Rise Set
Actual Time 6:52 AM MST 4:38 PM MST
Civil Twilight 6:20 AM MST 5:11 PM MST
Nautical Twilight 5:43 AM MST 5:47 PM MST
Astronomical Twilight 5:06 AM MST 6:24 PM MST
Moon 9:15 PM MST (11/4) 11:43 AM MST (11/4)
Length of Visible Light 10h 51m
Length of Day
9h 45m
Waning Gibbous, 71% of the Moon is Illuminated
Nov 4
Waning Gibbous
Nov 6
Last Quarter
Nov 13
New
Nov 20
First Quarter
Nov 28
Full

Hourly Weather History & Observations

Time (MST) Temp. Windchill Dew Point Humidity Pressure Visibility Wind Dir Wind Speed Gust Speed Precip Events Conditions
12:53 AM 35.1 °F 27.9 °F 30.9 °F 85% 30.09 in 9.0 mi East 9.2 mph - 0.00 in   Overcast
1:53 AM 35.1 °F 28.6 °F 32.0 °F 89% 30.09 in 9.0 mi ENE 8.1 mph - N/A   Overcast
1:35 AM 35.6 °F 29.2 °F 33.8 °F 93% 30.02 in 4.0 mi ENE 8.1 mph - 0.02 in Rain Rain
1:53 AM 35.1 °F 28.6 °F 33.1 °F 92% 30.06 in 6.0 mi East 8.1 mph - 0.03 in Rain Light Rain
2:53 AM 35.1 °F 30.1 °F 34.0 °F 96% 30.06 in 6.0 mi ENE 5.8 mph - 0.00 in   Mostly Cloudy
3:18 AM 33.8 °F 29.6 °F 33.8 °F 100% 30.00 in 5.0 mi ENE 4.6 mph - N/A   Mostly Cloudy
3:53 AM 34.0 °F 31.0 °F 34.0 °F 100% 30.04 in 5.0 mi ENE 3.5 mph - N/A   Mostly Cloudy
4:53 AM 33.8 °F 30.8 °F 33.8 °F 100% 29.99 in 5.0 mi NNE 3.5 mph - N/A   Clear
5:53 AM 34.0 °F 31.0 °F 33.1 °F 96% 30.05 in 6.0 mi NNE 3.5 mph - N/A   Partly Cloudy
6:53 AM 33.1 °F - 32.0 °F 96% 30.05 in 5.0 mi Calm Calm - N/A   Partly Cloudy
7:53 AM 33.1 °F 27.7 °F 32.0 °F 96% 30.08 in 5.0 mi West 5.8 mph - N/A   Partly Cloudy
8:53 AM 36.0 °F 31.1 °F 35.1 °F 97% 30.09 in 5.0 mi WSW 5.8 mph - N/A   Scattered Clouds
9:13 AM 37.4 °F 31.4 °F 37.4 °F 100% 30.03 in 6.0 mi SW 8.1 mph - N/A   Partly Cloudy
9:53 AM 41.0 °F 35.2 °F 37.9 °F 89% 30.12 in 8.0 mi WSW 9.2 mph - N/A   Partly Cloudy
10:20 AM 46.4 °F 39.8 °F 39.2 °F 76% 30.08 in 10.0 mi NW 16.1 mph - N/A   Mostly Cloudy
10:53 AM 45.0 °F 37.1 °F 37.9 °F 76% 30.16 in 10.0 mi NNW 19.6 mph - N/A   Overcast
11:53 AM 44.1 °F 36.8 °F 37.9 °F 79% 30.18 in 10.0 mi NNW 16.1 mph - N/A   Overcast
12:53 PM 42.1 °F 35.7 °F 36.0 °F 79% 30.20 in 10.0 mi NW 11.5 mph - N/A   Overcast
1:53 PM 46.0 °F 41.9 °F 37.0 °F 71% 30.21 in 10.0 mi NW 8.1 mph - N/A   Overcast
2:26 PM 44.6 °F 38.4 °F 35.6 °F 71% 30.17 in 10.0 mi North 12.7 mph - N/A   Partly Cloudy
2:53 PM 45.0 °F 39.7 °F 35.1 °F 68% 30.24 in 10.0 mi North 10.4 mph - N/A   Clear
3:53 PM 44.1 °F 39.5 °F 35.1 °F 71% 30.27 in 10.0 mi North 8.1 mph - N/A   Clear
4:53 PM 37.0 °F 31.6 °F 33.1 °F 86% 30.28 in 10.0 mi North 6.9 mph - N/A   Clear
5:53 PM 30.9 °F - 28.9 °F 92% 30.32 in 10.0 mi Calm Calm - N/A   Clear
6:53 PM 32.0 °F - 30.0 °F 92% 30.34 in 10.0 mi Calm Calm - N/A   Clear
7:36 PM 28.4 °F - 26.6 °F 93% 30.26 in 9.0 mi Calm Calm - N/A   Scattered Clouds
7:51 PM 28.4 °F 24.6 °F 26.6 °F 93% 30.26 in 9.0 mi NW 3.5 mph - N/A   Mostly Cloudy
7:53 PM 30.0 °F 25.2 °F 28.0 °F 92% 30.34 in 9.0 mi NNW 4.6 mph - N/A   Mostly Cloudy
8:53 PM 33.1 °F - 32.0 °F 96% 30.32 in 8.0 mi Calm Calm - N/A   Overcast
9:53 PM 34.0 °F - 32.0 °F 92% 30.29 in 8.0 mi Calm Calm - N/A   Overcast
10:53 PM 34.0 °F - 33.1 °F 96% 30.27 in 8.0 mi Calm Calm - N/A   Overcast